Location: *
(13.0000°N, 151.6000°E)
Time: 14:21:31
(UTC+00:00)

Cosmos 1975 - Pass Details

Date: 01 April 2020
Orbit: 542 x 561 km, 82.5° (Epoch: 03 June)

Event Time Altitude Azimuth Distance (km) Brightness Sun altitude
Rises 18:48:43 0° 336° (NNW) 2,715 6.2 -15.5°
Reaches altitude 10° 18:51:10 10° 322° (NW) 1,825 5.2 -14.9°
Maximum altitude 18:54:26 24° 268° (W) 1,165 3.9 -14.1°
Drops below altitude 10° 18:57:43 10° 213° (SSW) 1,833 5.1 -13.3°
Sets 19:00:11 0° 199° (SSW) 2,730 6.1 -12.7°
